CAPE
1116 1178 1213 1251 1259 1262 1265 1262 1261 1212 1136 1015 913 900 1076 1343 1290 1148 1276 1450 1523 1682 1774 1819 1841 1855 1953 2028 2058 2107 2174 2304 2428 2496 2531 2530 2522 2538 2592 2695 2757 2692 2570 2500 2418 2390 2426 2413 2323 2157 1920 1371 422 13 247 270 23 64 60 123 462 551 564 468 206 1 89 0 0 0 0 0 0 0 0 0 7 71 283 154 109 140 86 2 0
1093 1137 1149 1171 1206 1199 1214 1230 1237 1215 1141 1044 952 985 976 1161 1440 1440 1327 1479 1698 1784 1847 1888 1890 1879 1891 1984 2030 2058 2108 2176 2302 2427 2475 2500 2495 2483 2512 2596 2650 2665 2547 2452 2446 2448 2439 2431 2369 2272 2110 1939 1547 683 39 9 11 40 74 64 436 502 572 583 508 349 282 217 226 12 56 3 19 0 4 3 9 34 54 183 192 114 83 11 0
1109 1137 1139 1143 1156 1158 1151 1150 1156 1158 1121 1063 1004 1076 1090 1105 1285 1541 1569 1478 1641 1875 1958 2007 2004 1961 1902 1914 2010 2076 2123 2153 2215 2310 2380 2420 2447 2445 2464 2524 2568 2567 2515 2403 2368 2410 2465 2461 2399 2300 2164 2046 1881 1666 1130 346 3 18 61 70 68 261 510 589 573 517 450 418 343 320 75 266 420 448 396 203 28 17 21 56 171 199 140 37 5
1165 1200 1205 1183 1162 1158 1157 1140 1135 1140 1129 1111 1129 1166 1194 1217 1294 1499 1647 1640 1590 1730 1975 2099 2150 2118 2044 1965 1974 2076 2160 2212 2243 2292 2345 2370 2390 2419 2442 2478 2514 2522 2493 2375 2280 2294 2346 2409 2378 2288 2187 2078 1984 1792 1666 1434 950 34 12 43 68 70 456 522 583 559 532 504 455 415 390 390 413 503 584 597 557 491 408 146 88 188 192 154 43
1199 1251 1280 1261 1245 1236 1219 1201 1183 1157 1150 1160 1192 1237 1292 1315 1341 1483 1657 1761 1727 1665 1771 2012 2182 2255 2232 2143 2070 2060 2146 2252 2314 2350 2381 2403 2406 2408 2427 2441 2453 2462 2460 2398 2283 2223 2229 2237 2210 2177 2121 2023 2002 1938 1792 1535 1359 1143 473 7 41 71 57 349 564 582 563 550 546 518 509 507 526 522 511 518 573 598 555 485 92 131 152 133 149
1305 1324 1354 1357 1344 1306 1293 1272 1246 1226 1200 1200 1217 1253 1318 1374 1395 1459 1600 1796 1882 1819 1756 1839 2012 2168 2268 2291 2232 2172 2163 2228 2327 2388 2436 2465 2473 2457 2436 2428 2416 2400 2396 2388 2342 2278 2225 2199 2180 2115 2049 1980 1840 1778 1737 1633 1508 1404 1290 1061 428 36 61 46 117 529 579 572 572 599 589 604 577 561 569 542 499 496 538 584 577 520 281 98 104
1505 1460 1456 1457 1450 1414 1381 1358 1332 1314 1295 1282 1260 1255 1286 1349 1400 1432 1502 1676 1875 1970 1933 1866 1924 2011 2089 2191 2263 2283 2264 2254 2280 2360 2432 2480 2515 2528 2500 2464 2436 2402 2358 2350 2348 2344 2314 2260 2210 2157 2105 2031 1917 1780 1659 1563 1459 1363 1272 1207 1157 1008 690 108 49 44 168 341 500 538 594 603 600 605 574 539 519 467 215 431 444 469 461 399 203
1722 1662 1608 1583 1581 1556 1515 1465 1470 1472 1444 1368 1357 1332 1313 1322 1365 1399 1420 1491 1643 1920 2076 2056 2008 2012 2056 2066 2110 2160 2222 2262 2298 2319 2370 2442 2498 2529 2533 2509 2485 2455 2412 2384 2374 2375 2377 2358 2324 2268 2206 2142 2042 1919 1775 1649 1509 1392 1277 1154 1074 1005 968 904 733 541 189 180 177 371 420 501 525 530 506 475 448 422 16 50 142 136 54 280 315
1952 1879 1811 1766 1721 1693 1664 1632 1630 1632 1625 1569 1463 1429 1398 1381 1379 1399 1415 1424 1437 1555 1853 2115 2165 2142 2112 2112 2123 2133 2136 2154 2220 2311 2378 2428 2463 2507 2540 2553 2547 2519 2487 2467 2458 2458 2446 2438 2423 2405 2355 2304 2230 2133 1998 1835 1671 1513 1374 1224 1092 974 892 822 801 744 698 627 545 455 394 373 394 433 425 416 58 174 36 6 98 127 58 70 347
2170 2106 2038 1963 1902 1854 1821 1809 1799 1790 1784 1775 1679 1504 1474 1468 1464 1467 1464 1460 1440 1426 1447 1684 2023 2187 2203 2186 2188 2212 2232 2206 2190 2242 2336 2419 2484 2518 2547 2579 2598 2586 2570 2544 2540 2536 2538 2531 2517 2496 2485 2446 2418 2372 2309 2226 2102 1944 1755 1548 1351 1160 983 857 762 699 646 605 576 548 505 472 422 354 168 97 43 27 32 0 30 83 5 13 27
2365 2316 2248 2185 2122 2071 2032 2008 1990 1976 1956 1913 1879 1737 1551 1521 1511 1522 1522 1534 1519 1480 1438 1427 1548 1867 2140 2212 2201 2179 2230 2311 2359 2347 2348 2410 2474 2556 2593 2617 2632 2670 2682 2676 2654 2618 2605 2604 2610 2615 2614 2630 2609 2579 2539 2485 2414 2322 2213 2072 1904 1728 1528 1386 1276 1135 1044 982 913 857 815 752 687 559 447 399 338 34 61 17 1 2 0 4 70
2574 2508 2458 2411 2361 2311 2256 2224 2192 2178 2138 2102 2074 1994 1829 1624 1551 1529 1541 1558 1567 1553 1520 1477 1442 1486 1693 2004 2189 2213 2169 2185 2317 2444 2482 2488 2500 2526 2574 2618 2646 2689 2728 2758 2749 2716 2675 2650 2651 2646 2653 2670 2664 2655 2659 2646 2630 2588 2524 2445 2335 2208 2055 1877 1702 1551 1446 1337 1250 1189 1095 1023 976 890 793 686 582 503 428 371 196 169 0 0 70
2771 2732 2675 2631 2582 2529 2490 2445 2421 2370 2332 2302 2311 2266 2153 1980 1760 1597 1561 1566 1605 1633 1611 1573 1542 1495 1478 1563 1786 2062 2200 2205 2206 2244 2385 2506 2557 2552 2499 2530 2616 2666 2710 2746 2780 2775 2759 2740 2724 2703 2685 2678 2688 2695 2688 2661 2641 2625 2609 2583 2542 2472 2378 2293 2156 2014 1888 1804 1669 1569 1432 1296 1214 1132 1022 915 836 779 720 648 570 501 458 460 514
2894 2899 2874 2829 2778 2730 2685 2650 2597 2543 2507 2522 2548 2518 2427 2301 2124 1912 1671 1621 1645 1682 1712 1716 1674 1629 1574 1529 1543 1645 1857 2053 2188 2234 2248 2285 2396 2497 2491 2423 2445 2563 2646 2707 2752 2784 2794 2782 2756 2743 2725 2701 2682 2688 2665 2685 2662 2625 2603 2554 2512 2475 2434 2408 2339 2279 2209 2119 1990 1860 1785 1650 1477 1381 1318 1208 1147 1072 1022 981 936 872 821 876 865
2897 2975 2996 2976 2947 2898 2854 2806 2758 2729 2728 2749 2739 2688 2609 2518 2410 2304 2147 1940 1703 1727 1750 1796 1810 1791 1737 1678 1622 1611 1661 1767 1941 2106 2204 2242 2247 2299 2443 2461 2423 2454 2546 2630 2694 2754 2797 2812 2819 2821 2812 2798 2787 2770 2748 2729 2690 2664 2653 2608 2550 2524 2544 2543 2526 2527 2540 2542 2528 2463 2461 2391 2294 2239 2181 2120 1982 1985 1878 1776 1686 1572 1486 1435 1354
2915 2993 3049 3078 3063 3036 2994 2958 2942 2939 2944 2925 2888 2841 2760 2839 2838 2820 2689 2532 2340 2095 1823 1784 1822 1859 1882 1878 1819 1756 1734 1760 1862 1978 2104 2214 2257 2255 2259 2319 2371 2420 2517 2617 2689 2744 2793 2849 2883 2918 2933 2943 2956 2956 2953 2924 2898 2850 2903 2982 3058 3100 3086 3137 3123 3013 3027 3045 3007 2952 2910 2879 2865 2761 2608 2459 2611 2416 2206 2044 1953 1656 1713 1743 1726
3027 3107 3147 3169 3172 3161 3139 3128 3116 3102 3085 3047 3013 2970 3016 3151 3232 3250 3202 3063 2826 2599 2314 2046 1853 1834 1890 1941 1942 1900 1863 1850 1861 1948 2072 2199 2302 2365 2410 2406 2378 2358 2408 2542 2670 2746 2805 2861 2899 2940 2972 2998 3031 3049 3061 3055 2953 3144 3297 3377 3416 3414 3372 3351 3201 3202 3172 3186 3250 3251 3231 3216 2989 2887 2909 2875 2792 2716 2471 2178 2026 1767 1583 1532 1584
3121 3250 3334 3321 3337 3308 3278 3245 3225 3213 3185 3171 3120 3149 3250 3353 3448 3478 3459 3319 3156 2958 2725 2463 2153 1884 1846 1894 1938 1978 1966 1953 1944 1938 1954 2073 2206 2317 2395 2434 2435 2430 2447 2468 2533 2636 2735 2836 2904 2955 2988 3026 3061 3093 3119 3061 3174 3308 3472 3570 3590 3584 3564 3454 3304 3223 3365 3298 3347 3418 3440 3136 3076 3040 2982 2872 2746 2686 2818 2731 2420 2124 1825 1653 1593
2938 3306 3465 3510 3525 3506 3467 3436 3394 3370 3352 3258 3286 3360 3441 3524 3579 3614 3617 3553 3448 3298 3102 2877 2608 2287 1970 1834 1881 1944 1965 1976 1986 1994 1993 2000 2064 2181 2238 2273 2303 2347 2386 2438 2477 2521 2624 2743 2855 2946 2994 3028 3067 3110 3069 3180 3336 3486 3643 3702 3689 3649 3637 3515 3442 3319 3342 3332 3218 2899 2928 2791 2596 2606 2478 2541 2497 2472 2448 2463 2439 2468 2122 1804 1764
3256 3314 3344 3634 3714 3692 3663 3624 3589 3534 3516 3432 3460 3541 3603 3664 3702 3726 3717 3675 3642 3550 3399 3230 3045 2838 2615 2368 2065 1958 2042 2104 2135 2155 2162 2142 2127 2136 2262 2318 2371 2440 2511 2567 2599 2654 2728 2794 2874 2944 3008 3063 3132 3215 3333 3469 3641 3766 3798 3790 3801 3840 3795 3728 3522 3599 3038 3052 2844 2966 2986 2952 2863 2691 2635 2592 2491 2203 2051 1972 1961 2024 2002 1805 1650
3592 3609 3601 3585 3733 3830 3832 3810 3769 3724 3686 3675 3675 3706 3743 3778 3805 3816 3799 3770 3732 3688 3628 3500 3325 3153 2974 2814 2633 2488 2250 2196 2374 2434 2472 2471 2447 2436 2449 2486 2527 2610 2692 2762 2807 2876 2944 3005 3075 3141 3172 3202 3359 3513 3650 3805 3930 3987 4049 4034 4055 3996 3939 3825 3273 3380 3061 2849 2436 2800 3014 2653 2549 2722 2665 2578 2602 2516 2362 2301 2224 2145 2063 1990 1819
3858 3846 3819 3782 3760 3754 3936 3958 3929 3904 3875 3854 3862 3864 3864 3880 3892 3889 3866 3840 3805 3750 3718 3618 3512 3388 3228 3089 2988 2885 2752 2577 2386 2569 2661 2704 2715 2737 2755 2772 2794 2840 2891 2931 2972 3034 3106 3163 3142 3338 3511 3626 3748 3857 3983 4090 4127 4119 4128 4101 4057 4017 3976 3937 3849 3648 3020 2176 1909 2147 2522 2705 2579 2498 2380 2254 2297 2326 2157 1911 1800 1746 1723 1807 1857
3878 3959 3984 3981 3986 3978 3955 3940 3965 4031 4031 4007 3993 4001 3992 3998 3980 3960 3948 3924 3888 3851 3781 3718 3635 3550 3442 3328 3216 3135 3053 2956 2806 2703 2671 2630 2871 2914 2965 2976 3000 3016 3036 3081 3124 3176 3181 3427 3570 3690 3794 3878 3994 4058 4088 4096 4053 4049 4050 4075 4012 3986 3962 3908 3790 3632 3577 3306 2872 2723 2555 2465 2246 1974 1728 1442 1238 1045 1026 1052 1016 1090 1132 1174 1216
4310 3734 3709 3773 3890 4003 4040 4062 4049 4037 4076 4105 4098 4102 4101 4086 4064 4044 4016 3987 3965 3924 3864 3781 3715 3654 3593 3517 3442 3359 3297 3230 3152 3107 3029 2929 2792 2884 2993 3048 3103 3135 3104 3224 3347 3458 3592 3684 3766 3851 3929 3966 3990 4048 4073 4149 4108 3904 3906 3867 3834 3771 3650 3561 3312 2968 2705 2519 2274 2127 1870 1493 961 286 65 112 187 293 463 663 815 858 860 876 863
4665 4317 3812 3648 3639 3727 3826 3914 3963 4031 4106 4140 4171 4176 4180 4156 4142 4122 4077 4049 4023 3980 3928 3856 3802 3742 3675 3638 3600 3551 3495 3468 3476 3444 3401 3302 3168 3032 3109 3276 3428 3499 3577 3604 3664 3724 3792 3858 3896 3951 4017 4088 4137 4070 4002 3921 3793 3733 3670 3609 3494 3316 3164 2946 2626 2452 2168 1805 1222 284 1 0 3 13 28 46 70 144 228 347 469 601 713 724 735
4688 4605 4305 3875 3638 3592 3804 3918 3988 4034 4096 4151 4202 4213 4217 4193 4191 4188 4145 4106 4053 4014 3983 3926 3870 3836 3809 3793 3765 3752 3762 3782 3792 3772 3701 3600 3505 3479 3656 3747 3784 3814 3833 3873 3901 3967 4019 4121 4214 4275 4279 4259 4189 4082 3857 3657 3600 3487 3296 3102 2926 2758 2508 2216 1700 682 0 0 2 0 0 0 2 13 25 40 63 102 136 153 204 269 428 552 582
4958 4611 4408 4350 4063 3777 3903 4019 4118 4168 4196 4236 4257 4272 4257 4261 4248 4222 4189 4154 4126 4075 4045 4011 3983 3963 3959 3954 3978 3996 4025 4079 4100 4050 3985 3934 3895 3842 3791 3992 3988 4003 4042 4081 4176 4325 4421 4468 4472 4443 4305 4057 3764 3624 3622 3371 3129 2914 2624 2356 1910 1198 159 0 0 0 0 0 0 0 0 0 0 2 5 16 47 73 87 84 134 205 248 377 467
5000 4929 4611 4289 4111 3977 4038 4693 4572 4452 4504 4490 4485 4404 4362 4342 4315 4310 4268 4243 4206 4188 4163 4142 4137 4132 4147 4203 4273 4327 4362 4352 4307 4245 4229 4220 4183 4134 4082 4218 4269 4330 4428 4494 4531 4506 4396 4180 3944 3818 3786 3742 3591 3184 2844 2569 2250 1898 1145 128 0 0 0 0 0 0 0 0 0 1 2 0 0 0 0 4 9 13 25 50 69 96 124 199 298
4901 4979 4872 4510 4276 4121 4186 4837 4713 4652 4681 4722 4726 4693 4693 4628 4521 4502 4448 4434 4394 4379 4346 4327 4372 4439 4458 4508 4581 4629 4607 4543 4507 4434 4412 4370 4321 4244 4297 4334 4342 4277 4145 4044 4021 3820 3736 3732 3700 3634 3403 3063 2822 2558 2143 1695 922 0 0 0 0 0 0 0 0 0 0 0 0 0 0 0 0 0 0 0 0 1 7 30 62 112 126 181 228
4697 4888 4907 4824 4503 4435 4470 4905 4750 4683 4686 4758 4806 4869 4888 4906 4890 4845 4822 4790 4792 4825 4826 4848 4813 4739 4766 4822 4812 4803 4769 4668 4514 4465 4393 4348 4284 4191 4128 4100 4076 3980 3883 3804 3724 3648 3612 3544 3290 2863 2676 2377 2106 1569 391 0 0 0 0 0 0 0 0 0 0 0 0 0 0 0 0 0 0 0 0 0 0 0 3 18 34 60 105 141 194
4511 4758 4848 4866 4756 4649 4628 4789 4751 4733 4676 4660 4732 4865 4901 5049 5144 5176 5150 5200 5217 5193 5170 5152 5090 5041 5011 4941 4829 4806 4807 4574 4443 4388 4302 4218 4136 4042 3959 3950 3886 3720 3593 3512 3495 3441 3312 2954 2755 2429 1714 841 0 0 0 0 0 0 0 0 0 0 0 0 0 0 0 0 0 0 0 0 0 0 0 0 0 0 4 8 22 38 64 102 153
4483 4446 4713 4820 4854 4789 4687 4707 4717 4747 4699 4731 4789 4881 4983 5016 5067 5260 5401 5430 5408 5422 5382 5335 5225 5168 5158 5097 4989 4876 4799 4764 4604 4402 4335 4177 4038 3898 3765 3645 3526 3448 3405 3361 3314 3238 2966 2268 1755 811 0 0 0 0 0 0 0 0 0 0 0 0 0 0 0 0 0 0 0 0 0 0 0 0 0 0 0 0 1 5 16 32 46 86 127
4424 4469 4437 4638 4781 4822 4771 4761 4744 4731 4757 4799 4943 5000 5060 5049 5055 4880 5012 5254 5384 5419 5438 5445 5268 5160 5124 4969 4055 4347 4465 4648 4439 4226 4073 4028 3893 3696 3515 3342 3319 3291 3315 3362 3133 2734 2160 1038 0 0 1 1 1 1 1 1 1 0 0 0 0 0 0 0 0 0 0 0 0 0 0 0 0 0 0 0 1 3 3 4 5 9 16 29 43
3926 4325 4412 4454 4555 4681 4772 4804 4793 4800 4799 4849 4949 5019 5023 4796 4446 4374 4457 4586 4723 4946 5110 4965 4581 4503 4489 4463 4178 3708 3912 4362 4159 3870 3750 3638 3483 3316 3283 3214 3163 3220 3186 3065 2701 1550 0 0 0 1 3 3 2 3 2 2 2 2 1 1 0 0 0 0 0 0 0 0 0 0 0 0 0 0 2 4 6 6 6 6 10 10 11 19 24
3467 3912 4277 4420 4548 4521 4505 4601 4737 4838 4870 4918 4954 4902 4856 4796 4812 4717 4525 4421 4354 4455 4466 4424 4255 4064 3971 3761 3529 3556 3499 3506 3478 3365 3324 3291 3176 3126 3128 3010 3192 3245 3158 2036 487 0 0 0 1 3 6 5 4 4 4 3 3 2 2 2 1 0 0 0 0 0 0 0 0 0 0 0 0 0 2 6 10 13 15 15 14 16 9 7 7
3081 3428 3847 4350 4432 4138 4010 4152 4407 4620 4734 4822 4914 4894 4886 5006 4736 4470 4432 4353 4230 4024 3788 3800 3811 3594 3389 3205 3185 3145 3231 3168 3113 3111 3115 3105 3273 3105 2944 2873 2905 2225 775 0 0 0 0 0 3 4 7 6 4 3 4 4 3 4 4 3 2 0 0 0 0 0 0 0 0 0 0 0 0 0 1 2 4 11 22 25 20 14 8 5 5
2749 3032 3258 3832 4316 4153 3968 4065 4148 4227 4446 4673 4895 4992 5051 4790 4430 4336 4214 4157 3989 3708 3514 3551 3511 3512 3366 3252 3346 3297 3376 3365 3353 3262 3216 3009 2718 2377 1727 1077 420 0 0 0 0 0 0 0 4 6 6 4 3 4 4 3 3 4 4 3 2 0 0 0 0 0 0 0 0 0 0 0 0 0 0 1 2 5 8 11 14 16 16 9 6
2282 2681 3112 3397 3705 3992 4034 4124 4181 4019 4221 4423 4625 4796 4661 4456 4244 4144 4084 3950 3817 3729 3458 3383 3276 3283 3209 3074 2648 3336 3453 3059 2633 2822 2750 1913 1100 704 0 0 0 0 0 0 0 0 0 2 4 6 5 2 1 2 2 2 2 4 4 3 1 0 0 0 0 0 0 0 0 0 0 0 0 0 0 0 1 2 2 3 6 12 20 22 17
1979 2135 2411 2587 2651 2890 3486 3814 3905 3920 3987 4036 4170 4270 4202 4108 3933 3666 3422 3298 3286 3278 3188 3157 3110 2767 2556 2316 2544 2740 2648 2189 1870 1540 1319 838 0 0 0 0 0 0 0 0 0 0 4 7 8 6 2 1 1 3 2 2 3 3 4 1 0 0 0 0 0 0 0 0 0 0 0 0 0 0 0 0 0 0 0 0 0 1 2 8 17
1579 1785 2017 2187 2380 2570 3312 3590 3694 3739 3810 3797 3829 3816 3684 3524 3343 3228 3093 3090 3030 2902 2822 2920 2905 2758 2422 2088 1894 1779 1667 1574 1370 826 0 0 0 0 0 0 0 0 0 2 4 6 5 5 2 0 0 1 1 1 2 3 3 3 2 1 1 0 0 0 0 0 0 0 0 0 0 0 0 0 0 0 0 0 0 0 0 0 0 1 1
1370 1467 1680 1762 1866 2237 2780 3307 3585 3527 3527 3477 3565 3408 3355 3022 2830 2636 2771 2742 2630 2525 2395 2238 2068 1954 1842 1671 1450 1230 1002 617 103 0 0 0 0 0 0 0 0 1 3 5 7 6 4 2 0 1 1 0 0 1 2 2 3 1 1 1 1 0 0 0 0 0 0 0 0 0 0 0 0 0 0 0 0 0 0 0 0 0 0 0 0
1163 1200 1291 1471 1617 1741 2058 2340 2831 3217 3199 3033 2900 2855 2658 2399 2227 2160 2158 2130 2042 1968 1954 1954 1864 1810 1450 466 0 0 0 0 0 0 0 0 0 0 0 1 4 3 2 2 1 0 0 0 0 0 0 0 0 0 1 0 1 2 1 0 0 0 0 0 0 0 0 0 0 0 0 0 0 0 0 0 0 0 0 0 0 0 0 0 0
954 957 1044 1136 1266 1451 1603 1777 2053 2536 3020 2896 2477 2267 2097 1993 1938 1824 1833 1748 1673 1671 1654 1497 1382 828 0 0 0 0 0 0 0 0 0 0 0 0 1 3 4 2 1 0 0 0 1 1 1 0 0 0 0 0 0 0 1 1 1 1 0 0 0 0 0 0 0 0 0 0 0 0 0 0 0 0 0 0 0 0 0 0 0 0 0
998 869 906 996 1026 1145 1384 1652 1779 1824 1945 1953 1848 1915 1856 1651 1588 1502 1448 1442 1384 1280 1191 964 272 0 0 0 0 0 0 0 0 0 0 0 1 3 3 2 1 0 0 1 2 2 4 4 2 1 0 0 0 0 0 0 0 0 1 1 1 0 0 0 0 0 0 0 0 0 0 0 0 0 0 0 0 0 0 0 0 0 0 0 0
887 889 886 880 957 957 1045 1145 1323 1425 1453 1385 1543 1642 1504 1328 1246 1150 1099 1043 1001 712 70 0 0 0 0 0 0 1 1 0 0 0 0 0 0 0 1 3 6 6 5 6 6 8 8 7 5 4 4 2 0 0 0 0 0 0 0 0 0 0 0 0 0 0 0 0 0 0 0 0 0 0 0 0 0 0 0 0 0 0 0 0 0
854 871 896 924 959 947 998 1055 1056 1104 1184 1188 1286 1333 1278 1172 1080 1011 902 507 55 0 0 0 0 0 0 0 0 0 0 0 0 0 0 0 0 1 2 4 6 10 9 11 9 7 8 8 8 6 5 3 3 2 2 0 0 0 0 0 0 0 0 0 0 0 0 0 0 0 0 0 0 0 0 0 0 0 0 0 0 0 0 0 0
769 733 718 770 834 821 860 909 880 786 757 795 809 885 911 859 680 348 63 235 212 0 171 125 1 3 0 1 1 2 1 0 1 0 0 0 1 1 0 2 8 12 12 12 8 7 7 8 11 11 11 7 3 1 1 1 0 0 0 0 0 0 0 0 0 0 0 0 0 0 0 0 0 0 0 0 0 0 0 0 0 0 0 0 0
593 576 576 588 565 581 570 513 551 480 448 417 394 382 370 336 284 276 269 270 244 226 191 10 0 1 1 1 1 1 1 1 2 2 2 3 4 6 4 1 2 5 8 9 7 6 6 7 7 8 6 5 5 4 2 1 1 1 4 3 1 1 0 0 0 0 0 0 0 0 0 0 0 0 0 0 0 0 0 0 0 0 0 0 0
601 481 418 422 440 485 509 541 374 470 473 463 467 436 405 371 325 290 257 198 121 0 0 0 0 1 3 1 2 2 3 2 2 2 6 7 10 12 7 3 0 0 2 3 2 3 4 4 6 6 4 3 3 2 2 3 12 12 18 11 6 6 1 1 1 1 2 0 4 4 1 0 0 0 0 0 0 0 0 0 0 0 0 0 0
242 401 421 365 350 315 227 268 243 228 203 86 130 75 34 5 1 0 0 0 1 2 2 2 4 2 2 4 4 2 4 6 8 12 11 11 7 2 2 4 4 3 1 0 0 0 0 2 5 3 4 6 4 2 1 5 25 28 26 27 25 14 7 17 11 10 12 3 5 1 0 2 3 0 0 0 0 0 0 0 0 0 0 0 0
0 0 0 106 173 107 58 22 21 33 39 29 35 45 30 0 0 0 1 1 1 0 0 0 0 1 2 4 4 5 6 9 8 8 10 8 8 8 6 5 3 5 3 1 0 0 1 1 2 4 5 5 2 5 4 6 4 2 19 25 26 20 16 15 5 7 9 8 7 5 2 0 1 0 0 0 0 0 0 0 0 0 0 0 0
Wind_Speed
7 8 9 9 10 10 11 11 10 11 12 10 9 9 9 8 8 7 10 7 6 5 4 4 5 5 5 6 6 7 7 8 8 7 8 8 8 9 9 10 11 10 10 12 12 13 14 15 15 14 13 12 12 nan 10 11 nan nan nan 12 13 13 15 15 15 nan nan nan nan nan nan nan nan nan nan nan nan nan 24 24 25 26 nan nan nan
5 6 9 9 8 9 10 12 12 12 10 9 9 9 9 8 9 10 8 7 6 4 4 4 4 6 6 6 7 7 7 8 8 8 7 7 7 8 9 10 10 9 9 10 12 11 11 12 12 12 13 14 12 12 nan nan nan nan nan nan 12 12 14 14 13 12 12 13 13 nan nan nan nan nan nan nan nan nan nan 24 25 27 nan nan nan
5 7 8 8 8 10 12 12 13 11 9 9 9 9 9 9 10 8 7 8 7 5 4 4 5 6 6 7 7 7 7 7 8 9 8 8 7 7 8 9 9 9 9 10 10 10 10 11 11 11 10 11 12 12 11 11 nan nan nan nan nan 12 13 15 13 12 12 11 16 14 nan 18 21 20 21 22 nan nan nan nan 27 27 27 nan nan
8 9 9 9 9 10 11 12 11 9 8 9 9 9 9 9 9 8 7 7 5 5 5 4 5 6 6 6 7 7 7 7 8 8 8 8 7 7 7 7 7 7 8 8 8 10 11 10 10 10 9 10 11 11 11 11 11 nan nan nan nan nan 13 14 16 14 12 11 13 16 16 18 18 20 20 21 23 24 26 26 nan 27 28 29 nan
8 9 10 9 11 11 11 12 10 8 8 10 9 8 8 9 9 7 6 5 4 5 4 5 5 5 6 6 7 7 8 8 8 7 7 7 6 6 6 6 6 6 6 6 7 9 10 10 10 9 8 8 8 10 11 12 12 11 11 nan nan nan nan 15 16 16 14 14 12 17 17 17 17 19 22 22 21 23 24 26 nan 28 28 30 30
7 8 9 9 10 10 10 11 9 8 8 9 8 8 8 9 8 8 6 4 4 4 3 4 5 5 5 5 6 7 7 8 8 7 7 6 5 4 4 5 5 5 6 6 7 8 9 9 8 7 6 6 8 9 9 11 10 10 11 11 11 nan nan nan 14 15 15 15 14 13 19 19 17 19 23 25 23 22 23 25 26 28 30 nan 32
7 7 8 7 8 7 8 9 10 10 10 10 10 10 9 8 8 7 7 5 4 4 3 4 5 5 4 4 5 7 7 7 7 7 6 5 4 3 2 3 3 4 5 7 7 8 8 7 6 5 5 6 7 9 9 8 8 10 11 11 11 12 12 13 nan nan 15 14 13 15 15 19 22 19 23 26 25 26 26 26 25 30 32 32 31
7 7 8 7 7 7 8 9 11 11 13 13 11 10 10 9 9 8 8 6 5 4 4 4 4 4 3 4 5 6 6 6 6 6 5 5 4 3 2 1 1 2 3 5 6 6 6 6 6 6 7 8 9 10 8 8 7 7 8 10 12 14 14 15 17 18 17 16 16 15 17 16 21 23 24 28 26 24 nan nan 28 29 nan 33 33
8 8 8 7 8 10 12 13 14 14 13 12 11 10 10 11 10 10 9 7 7 6 5 5 4 3 3 4 4 5 5 5 5 5 6 5 4 3 1 0 1 2 2 2 2 2 3 5 7 9 11 14 15 14 12 11 8 9 9 12 13 14 15 16 18 20 19 19 17 18 17 17 19 22 23 27 nan 27 nan nan nan 28 nan nan 31
9 8 7 8 10 12 13 14 14 13 12 10 10 11 12 12 12 10 9 8 8 7 6 4 3 3 3 4 4 4 4 4 6 11 10 5 4 1 1 1 2 2 2 2 3 4 5 5 7 13 14 15 15 16 17 16 17 14 13 16 17 18 19 19 20 22 22 21 20 20 21 20 19 23 23 nan nan nan nan nan nan nan nan nan nan
10 9 8 11 13 14 14 14 14 12 11 11 12 11 11 12 11 10 9 9 8 7 6 4 3 3 3 3 4 4 3 3 10 10 11 11 5 2 2 2 3 4 4 4 6 6 5 6 7 9 11 11 13 17 17 18 18 20 19 20 22 23 22 23 23 25 25 24 22 23 23 21 19 23 26 25 29 nan nan nan nan nan nan nan nan
9 10 10 12 13 12 13 13 13 12 12 11 11 12 12 12 11 10 10 9 9 8 6 4 4 5 5 3 2 3 3 6 9 9 9 9 8 4 2 2 2 3 5 6 7 6 6 6 6 6 7 10 11 12 14 17 19 20 22 23 24 25 27 26 25 26 28 27 24 24 24 24 21 24 26 29 29 32 33 35 38 39 nan nan nan
7 8 10 11 11 11 12 11 10 10 10 11 12 13 12 11 10 10 9 10 11 8 5 5 5 6 5 2 1 1 1 5 8 8 7 8 9 7 3 2 2 4 5 6 6 5 5 4 5 6 7 12 12 12 13 14 19 21 22 23 23 24 24 26 28 27 28 28 26 23 26 26 23 22 29 32 36 35 36 37 39 41 43 42 40
6 6 6 6 5 5 5 5 5 5 7 8 9 9 8 7 9 11 12 12 9 7 7 6 6 6 5 4 3 3 1 3 5 5 5 6 7 6 3 3 4 5 5 5 4 4 4 4 5 7 9 11 13 15 15 16 17 19 23 25 25 23 24 25 25 26 26 28 28 25 24 31 27 24 28 38 40 38 39 38 42 42 45 44 42
8 7 5 4 3 3 2 2 2 3 4 5 5 5 5 6 8 10 11 10 9 9 9 8 8 8 7 7 6 4 3 2 2 3 4 5 5 6 0 2 4 5 5 4 3 4 4 6 7 9 10 13 15 18 18 19 20 20 21 24 27 27 26 25 27 29 30 31 30 28 24 27 29 27 29 39 42 42 45 44 44 45 47 48 45
9 9 8 5 4 3 2 2 2 3 3 4 4 4 5 6 7 9 9 8 10 11 11 11 9 8 8 8 7 4 4 1 3 4 4 4 6 7 3 1 2 4 4 2 2 3 6 8 9 10 11 13 16 20 20 21 22 21 21 23 26 28 28 30 31 33 33 33 34 33 30 30 32 31 32 37 40 44 47 50 44 49 55 54 47
10 10 9 7 6 5 5 4 3 3 4 5 5 5 5 6 6 9 8 8 9 10 11 13 12 10 9 9 6 5 6 4 4 5 6 7 10 7 6 5 3 2 2 1 2 4 7 10 11 11 12 14 16 20 22 25 22 22 22 22 25 26 26 34 38 38 36 36 36 36 34 33 32 27 26 34 43 49 62 54 46 56 63 57 50
12 12 10 10 8 8 7 6 6 6 7 6 7 6 6 7 7 9 9 9 9 10 12 14 14 12 10 8 8 7 8 7 6 6 8 10 10 8 9 7 3 2 2 3 5 6 7 10 12 12 12 14 18 21 23 27 24 22 22 22 21 23 26 34 36 36 39 38 37 35 35 36 37 33 32 35 42 56 68 59 53 65 71 66 53
14 14 13 12 10 9 9 9 8 9 9 9 9 9 10 10 10 11 10 10 9 12 13 13 14 14 11 10 8 8 10 9 7 7 9 12 11 11 11 9 5 4 5 5 8 9 9 11 13 14 14 15 19 23 26 30 26 25 26 25 23 23 27 36 36 35 40 43 42 40 37 39 40 39 37 37 40 52 62 59 55 62 73 75 66
16 16 14 13 13 12 12 11 11 11 11 11 12 11 11 12 12 13 13 11 11 13 13 13 13 14 15 14 13 12 12 12 12 9 11 13 14 13 12 9 5 5 8 9 10 11 13 14 15 16 17 17 19 23 26 31 30 27 29 30 28 26 30 38 39 38 40 50 59 47 42 43 42 42 40 39 40 46 53 56 55 60 70 75 72
27 24 21 19 17 15 14 13 12 13 14 14 14 14 15 15 15 15 14 13 12 13 13 14 14 15 17 17 16 16 15 13 12 13 12 15 16 15 12 9 8 10 12 12 14 14 16 17 19 18 19 19 20 21 24 29 33 32 31 32 33 31 35 39 41 45 58 68 58 44 38 40 41 41 40 39 40 42 47 52 54 57 63 68 68
31 30 26 23 21 19 17 17 16 16 17 18 18 17 17 17 16 16 14 14 13 11 13 15 16 17 19 20 20 19 17 13 14 14 14 15 17 17 14 12 14 15 14 14 17 18 18 21 21 26 30 30 28 26 27 30 34 38 34 32 28 28 33 40 44 50 59 67 65 52 42 41 45 45 44 43 43 45 46 49 51 53 56 60 63
32 29 27 25 24 22 22 20 21 22 21 21 21 20 21 21 20 19 17 15 14 13 12 13 14 17 20 22 23 22 21 18 12 17 17 16 15 17 15 13 16 18 17 17 19 19 23 26 33 41 39 38 37 36 36 38 40 40 38 37 38 37 41 47 50 53 61 65 66 61 53 50 50 49 49 49 50 51 49 48 49 52 53 53 55
34 32 30 27 26 25 24 24 24 25 24 24 24 23 24 24 24 24 22 19 17 14 14 14 13 14 17 21 24 24 22 21 19 16 19 16 15 16 15 12 15 20 21 22 26 29 33 36 36 35 36 34 33 33 34 38 39 38 41 43 43 46 50 52 54 56 60 63 63 61 57 54 53 51 nan 52 51 49 46 44 46 51 52 51 50
35 33 32 31 29 28 28 28 27 27 27 28 27 26 27 28 28 28 28 25 21 18 17 16 15 14 15 19 22 24 24 23 26 24 19 19 16 16 15 16 16 26 28 30 33 35 36 36 34 34 34 36 36 38 39 42 44 45 44 44 49 52 54 54 54 56 58 61 63 62 nan nan nan nan nan nan nan 44 42 40 42 45 48 47 47
38 36 35 35 33 34 33 32 31 31 31 31 29 30 30 30 30 31 31 29 26 23 21 20 18 18 17 18 21 23 28 31 30 29 28 27 25 22 22 23 24 26 29 33 36 37 36 37 41 43 43 43 43 44 46 46 45 47 48 49 52 52 53 54 55 57 nan nan nan nan nan nan nan nan nan nan nan 43 43 42 41 42 45 45 44
42 41 39 39 39 39 36 36 36 37 37 37 36 35 35 34 33 33 33 33 32 29 27 25 23 22 20 20 20 26 29 29 30 30 30 31 32 32 33 32 32 33 33 34 37 39 42 43 44 45 46 47 48 47 48 48 50 52 52 52 52 52 53 nan nan nan nan nan nan nan nan nan nan nan nan nan nan nan nan nan 42 40 43 45 45
43 43 43 42 41 40 39 38 40 41 44 44 43 42 41 39 37 36 36 36 36 34 32 29 27 25 23 23 26 29 27 28 28 29 30 32 33 34 34 36 37 37 39 40 43 44 45 46 47 46 47 49 49 50 51 51 52 52 51 52 nan nan nan nan nan nan nan nan nan nan nan nan nan nan nan nan nan nan nan nan nan nan 41 43 44
42 42 42 42 41 41 40 41 44 47 49 50 51 50 47 46 44 42 43 43 39 38 35 32 30 29 28 29 30 30 31 29 27 33 34 34 36 38 38 39 41 42 44 48 48 47 47 48 49 49 49 50 50 51 52 52 53 nan nan nan nan nan nan nan nan nan nan nan nan nan nan nan nan nan nan nan nan nan nan nan nan 45 41 43 43
36 38 38 38 38 39 41 42 43 42 42 43 44 46 50 53 51 46 45 45 47 42 39 36 34 35 37 36 33 32 30 34 44 46 46 47 48 49 50 49 48 49 49 49 48 50 50 52 52 53 53 53 54 54 53 nan nan nan nan nan nan nan nan nan nan nan nan nan nan nan nan nan nan nan nan nan nan nan nan nan nan nan 45 45 45
32 33 33 33 32 35 36 37 36 36 35 36 37 39 40 47 55 55 51 49 51 52 44 41 43 42 42 42 44 51 53 51 51 50 52 52 53 54 55 55 55 53 49 50 51 51 52 54 53 54 55 56 nan nan nan nan nan nan nan nan nan nan nan nan nan nan nan nan nan nan nan nan nan nan nan nan nan nan nan nan nan nan nan 48 47
30 29 31 31 32 32 32 33 33 33 33 33 34 34 36 39 44 50 53 54 56 56 56 54 51 52 52 50 49 48 50 52 52 52 53 54 55 56 56 56 54 55 52 55 54 53 54 56 57 56 nan nan nan nan nan nan nan nan nan nan nan nan nan nan nan nan nan nan nan nan nan nan nan nan nan nan nan nan nan nan nan nan nan nan 50
33 31 30 32 33 33 33 33 32 33 34 34 33 33 35 37 40 41 45 52 56 57 56 56 56 54 56 58 57 54 49 49 52 53 54 55 57 57 57 56 56 53 55 56 56 57 56 58 nan nan nan nan nan nan nan nan nan nan nan nan nan nan nan nan nan nan nan nan nan nan nan nan nan nan nan nan nan nan nan nan nan nan nan nan nan
35 34 33 33 34 34 33 33 34 34 34 34 34 35 36 37 39 40 41 42 47 50 54 56 55 55 55 58 61 59 55 53 52 54 56 56 56 56 59 55 56 56 57 58 59 59 nan nan nan nan nan nan nan nan nan nan nan nan nan nan nan nan nan nan nan nan nan nan nan nan nan nan nan nan nan nan nan nan nan nan nan nan nan nan nan
38 39 39 36 35 35 35 35 36 36 36 36 36 38 39 39 40 40 41 42 42 43 43 47 52 54 51 51 54 56 56 55 55 55 56 56 59 59 59 58 57 57 58 57 60 nan nan nan nan nan nan nan nan nan nan nan nan nan nan nan nan nan nan nan nan nan nan nan nan nan nan nan nan nan nan nan nan nan nan nan nan nan nan nan nan
38 39 41 40 39 38 38 38 37 37 38 38 38 39 40 40 42 42 43 44 44 44 44 45 45 48 56 56 57 56 57 57 58 59 58 58 56 55 59 59 59 58 58 nan nan nan nan nan nan nan nan nan nan nan nan nan nan nan nan nan nan nan nan nan nan nan nan nan nan nan nan nan nan nan nan nan nan nan nan nan nan nan nan nan nan
39 39 40 40 40 40 40 40 40 40 41 41 40 41 41 42 43 44 45 45 45 45 46 44 46 48 50 51 56 56 55 57 60 61 60 58 52 55 59 59 59 nan nan nan nan nan nan nan nan nan nan nan nan nan nan nan nan nan nan nan nan nan nan nan nan nan nan nan nan nan nan nan nan nan nan nan nan nan nan nan nan nan nan nan nan
42 40 40 41 42 43 42 41 42 44 43 42 41 41 43 43 45 46 46 46 46 47 47 46 46 46 47 47 49 48 51 55 60 59 54 53 54 58 nan nan nan nan nan nan nan nan nan nan nan nan nan nan nan nan nan nan nan nan nan nan nan nan nan nan nan nan nan nan nan nan nan nan nan nan nan nan nan nan nan nan nan nan nan nan nan
45 48 49 48 46 45 43 41 41 42 43 44 43 43 44 46 47 47 48 48 48 49 49 49 47 47 46 46 49 48 52 52 54 56 56 57 nan nan nan nan nan nan nan nan nan nan nan nan nan nan nan nan nan nan nan nan nan nan nan nan nan nan nan nan nan nan nan nan nan nan nan nan nan nan nan nan nan nan nan nan nan nan nan nan nan
48 46 47 50 48 49 48 45 43 43 45 47 48 47 47 49 50 50 50 51 50 50 51 51 51 49 48 48 49 53 58 57 57 57 nan nan nan nan nan nan nan nan nan nan nan nan nan nan nan nan nan nan nan nan nan nan nan nan nan nan nan nan nan nan nan nan nan nan nan nan nan nan nan nan nan nan nan nan nan nan nan nan nan nan nan
51 50 49 49 50 50 51 51 48 46 46 49 50 51 50 50 52 52 53 52 52 53 53 53 53 54 54 57 59 60 60 59 58 nan nan nan nan nan nan nan nan nan nan nan nan nan nan nan nan nan nan nan nan nan nan nan nan nan nan nan nan nan nan nan nan nan nan nan nan nan nan nan nan nan nan nan nan nan nan nan nan nan nan nan nan
54 54 53 51 51 52 53 53 52 53 51 51 54 54 53 54 55 55 55 56 56 55 55 56 56 57 60 65 nan nan nan nan nan nan nan nan nan nan nan nan nan nan nan nan nan nan nan nan nan nan nan nan nan nan nan nan nan nan nan nan nan nan nan nan nan nan nan nan nan nan nan nan nan nan nan nan nan nan nan nan nan nan nan nan nan
56 56 55 54 54 54 53 52 53 55 54 55 56 58 58 57 56 58 59 59 58 58 58 58 57 58 nan nan nan nan nan nan nan nan nan nan nan nan nan nan nan nan nan nan nan nan nan nan nan nan nan nan nan nan nan nan nan nan nan nan nan nan nan nan nan nan nan nan nan nan nan nan nan nan nan nan nan nan nan nan nan nan nan nan nan
55 55 55 56 56 56 55 55 54 55 57 61 60 59 59 60 60 60 61 62 62 62 62 61 60 nan nan nan nan nan nan nan nan nan nan nan nan nan nan nan nan nan nan nan nan nan nan nan nan nan nan nan nan nan nan nan nan nan nan nan nan nan nan nan nan nan nan nan nan nan nan nan nan nan nan nan nan nan nan nan nan nan nan nan nan
54 55 56 57 56 58 59 57 57 58 61 60 59 60 61 62 63 64 65 65 66 66 nan nan nan nan nan nan nan nan nan nan nan nan nan nan nan nan nan nan nan nan nan nan nan nan nan nan nan nan nan nan nan nan nan nan nan nan nan nan nan nan nan nan nan nan nan nan nan nan nan nan nan nan nan nan nan nan nan nan nan nan nan nan nan
53 55 56 56 58 59 59 60 62 62 62 63 65 64 64 65 66 67 68 68 nan nan nan nan nan nan nan nan nan nan nan nan nan nan nan nan nan nan nan nan nan nan nan nan nan nan nan nan nan nan nan nan nan nan nan nan nan nan nan nan nan nan nan nan nan nan nan nan nan nan nan nan nan nan nan nan nan nan nan nan nan nan nan nan nan
60 60 60 61 63 64 65 65 65 66 67 69 68 70 70 70 71 72 nan 72 71 nan 69 69 nan nan nan nan nan nan nan nan nan nan nan nan nan nan nan nan nan nan nan nan nan nan nan nan nan nan nan nan nan nan nan nan nan nan nan nan nan nan nan nan nan nan nan nan nan nan nan nan nan nan nan nan nan nan nan nan nan nan nan nan nan
64 65 66 66 66 67 68 70 73 75 74 75 75 75 75 74 74 73 72 73 73 72 71 nan nan nan nan nan nan nan nan nan nan nan nan nan nan nan nan nan nan nan nan nan nan nan nan nan nan nan nan nan nan nan nan nan nan nan nan nan nan nan nan nan nan nan nan nan nan nan nan nan nan nan nan nan nan nan nan nan nan nan nan nan nan
67 68 69 70 71 71 71 72 73 74 76 78 80 81 79 78 77 75 74 73 73 nan nan nan nan nan nan nan nan nan nan nan nan nan nan nan nan nan nan nan nan nan nan nan nan nan nan nan nan nan nan nan nan nan nan nan nan nan nan nan nan nan nan nan nan nan nan nan nan nan nan nan nan nan nan nan nan nan nan nan nan nan nan nan nan
69 69 67 69 72 72 71 71 72 70 69 nan 75 nan nan nan nan nan nan nan nan nan nan nan nan nan nan nan nan nan nan nan nan nan nan nan nan nan nan nan nan nan nan nan nan nan nan nan nan nan nan nan nan nan nan nan nan nan nan nan nan nan nan nan nan nan nan nan nan nan nan nan nan nan nan nan nan nan nan nan nan nan nan nan nan
nan nan nan 74 75 73 nan nan nan nan nan nan nan nan nan nan nan nan nan nan nan nan nan nan nan nan nan nan nan nan nan nan nan nan nan nan nan nan nan nan nan nan nan nan nan nan nan nan nan nan nan nan nan nan nan nan nan nan nan nan nan nan nan nan nan nan nan nan nan nan nan nan nan nan nan nan nan nan nan nan nan nan nan nan nan
Wind_Direction
214 207 213 209 214 213 209 205 196 196 199 198 196 202 205 199 199 200 213 212 228 246 266 290 306 323 325 327 334 333 332 332 327 324 326 328 324 323 317 325 343 355 356 6 10 10 10 14 18 19 14 19 28 nan 24 25 nan nan nan 9 14 5 0 5 13 nan nan nan nan nan nan nan nan nan nan nan nan nan 359 360 356 354 nan nan nan
208 216 216 214 217 213 212 208 205 206 202 196 197 203 201 198 200 209 209 209 227 239 269 281 298 316 323 330 333 336 330 330 324 321 329 332 332 316 321 329 342 354 346 3 4 6 3 7 16 14 3 12 21 28 nan nan nan nan nan nan 12 6 354 354 8 360 31 337 346 nan nan nan nan nan nan nan nan nan nan 352 348 348 nan nan nan
195 208 214 214 212 211 214 213 213 211 204 198 201 205 201 201 206 202 198 206 214 230 260 286 300 307 317 323 324 326 330 326 320 321 330 335 337 331 329 333 346 353 356 6 2 350 352 359 12 8 352 2 16 26 25 28 nan nan nan nan nan 2 351 351 348 5 18 14 337 342 nan 338 344 346 345 348 nan nan nan nan 344 340 339 nan nan
199 200 200 200 206 211 213 216 219 214 203 199 204 206 209 211 209 201 198 203 212 222 244 273 283 298 307 311 315 319 326 326 325 326 333 333 336 342 338 341 349 356 360 3 350 339 350 352 7 2 351 359 14 21 26 23 21 nan nan nan nan nan 353 344 350 358 358 8 342 346 340 337 343 340 336 335 339 338 339 336 nan 334 335 334 nan
210 206 204 202 203 204 206 211 212 210 201 202 205 211 214 216 211 205 211 209 216 232 234 247 266 280 294 310 318 325 335 332 330 331 326 326 334 336 340 341 349 356 356 350 334 336 341 351 4 350 344 357 8 18 24 25 23 14 13 nan nan nan nan 348 350 348 0 7 353 335 338 338 336 330 327 333 333 332 328 329 nan 333 334 333 331
210 213 213 211 208 209 206 205 201 200 200 203 210 216 217 217 214 209 219 222 231 243 250 248 258 279 292 314 323 332 330 328 334 337 336 330 325 325 328 332 340 342 340 334 334 334 341 351 354 343 348 7 24 25 26 29 21 14 7 4 6 nan nan nan 347 354 358 5 354 349 329 336 334 334 324 325 331 330 324 322 322 329 330 nan 334
211 213 217 213 211 208 208 206 203 199 201 204 211 214 215 216 216 214 223 224 236 242 252 261 258 272 301 315 331 339 338 332 335 339 337 333 333 329 323 315 317 316 317 326 328 336 347 358 5 359 14 30 43 45 41 33 23 21 5 358 354 352 1 352 nan nan 358 1 356 345 342 332 333 339 322 321 326 327 324 318 327 330 330 334 339
213 210 211 202 196 195 199 205 207 207 207 209 210 210 209 210 210 214 224 228 227 238 250 263 267 277 316 327 343 335 334 332 338 345 341 341 335 340 326 285 281 283 290 301 314 332 356 20 41 41 43 50 50 56 42 43 26 22 3 345 348 350 353 346 340 345 347 351 354 351 338 341 328 327 314 314 319 320 nan nan 336 333 nan 333 339
218 217 213 205 197 199 202 205 209 214 216 216 212 208 206 205 208 214 220 221 223 229 240 254 271 293 308 320 336 336 339 343 336 346 353 1 353 10 12 133 197 224 250 282 305 6 37 44 49 55 55 56 52 50 41 24 8 7 356 336 345 348 349 342 340 336 339 343 350 338 341 345 338 324 324 325 nan 334 nan nan nan 333 nan nan 333
224 223 218 216 212 210 211 211 214 219 221 221 217 211 207 208 209 214 219 222 226 233 240 254 270 293 298 311 322 330 339 325 6 19 12 2 3 19 179 143 143 154 165 143 103 70 68 67 71 61 55 50 45 40 36 25 15 1 347 329 338 342 345 345 341 337 336 341 345 342 345 351 341 327 329 nan nan nan nan nan nan nan nan nan nan
220 219 213 219 219 217 215 211 213 216 215 216 217 216 214 214 214 218 222 229 236 240 247 258 266 264 283 303 335 337 334 344 27 19 19 23 17 50 79 111 145 139 126 106 93 89 86 77 75 64 49 38 31 29 23 17 11 8 4 356 343 338 340 342 340 334 333 336 337 336 341 348 339 326 327 323 315 nan nan nan nan nan nan nan nan
212 206 206 214 218 220 217 215 211 207 209 209 214 216 218 220 221 226 230 238 240 242 250 260 253 250 252 280 339 342 342 27 31 23 15 18 24 52 98 137 153 137 113 96 103 103 87 69 51 35 22 18 9 3 4 6 3 360 357 354 354 354 349 343 338 331 327 329 331 335 334 333 332 325 321 313 315 314 315 314 315 317 nan nan nan
189 188 196 209 216 218 220 221 215 213 212 214 217 222 226 229 233 238 244 244 243 248 254 257 254 254 256 270 303 321 329 38 34 25 16 16 25 39 100 123 137 117 109 100 96 85 70 48 32 9 359 12 360 348 341 337 342 350 349 347 346 348 350 353 347 335 320 320 324 332 329 321 322 325 316 311 305 311 310 310 309 311 313 313 316
156 163 185 202 210 217 226 231 231 233 236 238 240 245 249 256 256 255 253 256 259 258 255 259 254 253 254 250 234 225 211 61 24 19 16 16 16 5 85 97 118 116 100 90 81 60 38 15 7 359 343 337 332 331 327 326 320 319 320 321 323 331 340 348 343 333 324 322 322 328 327 313 320 316 307 302 308 314 312 311 306 307 309 314 314
161 169 179 181 188 201 228 238 257 263 268 274 281 292 292 278 277 273 271 274 271 261 253 248 245 245 243 243 233 217 198 72 326 345 0 2 352 319 240 129 127 117 102 87 60 30 1 348 352 351 338 329 322 323 319 315 313 314 316 316 316 318 321 323 314 314 318 318 322 327 325 314 312 313 307 305 312 316 313 311 308 310 306 299 298
172 183 189 194 197 210 234 236 252 270 284 293 307 317 304 298 295 282 277 271 263 255 245 240 241 243 244 244 237 207 195 251 291 300 317 317 305 268 258 175 132 115 101 79 18 340 335 334 330 329 328 325 323 326 320 309 307 313 315 314 311 313 317 316 320 321 320 317 318 322 320 317 314 310 308 309 311 310 306 294 299 304 302 300 302
181 189 195 204 212 222 233 248 260 280 294 308 321 320 309 301 287 275 279 278 273 268 254 244 236 235 239 242 234 206 201 229 271 285 290 292 267 243 241 225 196 132 89 9 321 325 320 316 313 311 313 314 315 318 318 314 309 314 312 311 310 311 314 305 317 326 326 326 328 328 328 323 311 309 319 328 320 312 297 305 318 310 303 302 300
189 195 200 209 218 228 240 255 265 273 281 302 313 315 310 297 297 287 291 285 281 276 259 244 238 235 236 238 237 220 212 226 269 272 286 289 281 249 238 236 217 214 219 267 282 289 308 336 325 311 311 309 316 321 322 315 313 317 315 313 318 321 314 302 301 307 321 325 323 322 322 314 310 326 340 336 327 311 309 319 322 310 310 309 307
201 203 207 215 223 233 243 254 261 269 277 285 291 304 308 308 305 298 297 285 276 269 264 251 241 235 231 229 238 239 226 233 270 283 295 295 281 244 245 236 225 233 252 265 277 286 298 308 328 324 317 318 324 325 327 319 318 320 320 320 325 327 316 304 305 307 302 298 291 286 293 301 317 322 321 328 330 322 319 325 324 318 315 314 316
208 208 210 218 227 235 241 252 256 261 268 271 273 284 289 291 294 298 300 290 270 260 261 257 251 241 236 233 231 238 239 239 254 289 293 296 299 267 252 248 244 261 269 273 280 291 299 297 303 317 327 330 329 328 323 319 318 318 315 318 322 324 315 307 310 307 298 290 285 296 312 317 316 317 321 324 326 323 323 324 324 319 314 313 318
211 212 212 216 223 232 239 248 259 260 261 266 269 272 274 283 291 296 302 299 287 264 257 252 249 245 243 239 234 236 241 246 254 285 289 293 300 294 268 282 278 275 278 281 284 289 288 287 283 298 316 313 305 301 307 314 318 316 317 316 319 318 297 300 299 291 286 287 294 302 313 315 312 314 319 320 320 318 318 319 319 317 314 313 315
217 220 221 221 224 230 238 243 253 258 261 261 260 260 262 269 277 287 288 295 304 295 270 255 247 243 245 245 241 236 240 259 250 270 286 290 296 311 285 284 285 281 284 283 279 275 275 274 273 268 269 274 282 289 297 303 309 309 315 317 306 297 300 302 301 299 300 304 306 319 329 329 323 323 324 324 322 322 321 318 318 318 316 315 316
216 223 228 229 229 231 233 241 245 247 253 261 264 264 262 264 267 270 275 279 289 295 292 276 259 246 243 245 244 240 239 243 263 255 270 285 293 298 310 289 291 284 282 282 278 269 264 263 264 264 265 268 274 278 285 292 298 302 308 306 307 305 298 301 301 303 304 309 314 321 327 325 322 323 324 324 324 323 322 321 320 318 318 319 320
217 220 224 229 234 235 237 239 241 242 248 252 255 259 261 262 264 264 266 267 270 277 278 280 277 264 250 244 244 242 240 241 247 260 263 283 284 294 300 302 287 279 273 268 263 262 261 261 264 266 269 272 278 284 289 294 295 295 296 298 299 299 300 301 304 307 309 313 316 319 322 322 321 323 nan 325 323 321 322 322 321 320 320 321 325
218 220 223 225 229 233 236 239 242 243 244 248 248 249 252 256 259 260 261 260 260 262 265 270 275 273 262 251 247 245 244 246 241 245 256 266 277 280 283 284 281 261 260 264 262 264 266 269 268 271 275 279 283 286 288 290 290 289 290 291 294 297 300 302 305 308 310 312 314 317 nan nan nan nan nan nan nan 319 321 321 320 318 318 321 324
217 219 221 223 226 231 236 238 241 244 245 245 245 244 248 251 254 256 261 263 261 257 257 262 264 266 264 257 251 251 252 249 249 246 248 256 258 265 268 267 268 270 264 259 261 262 264 268 273 275 278 280 281 282 283 284 285 287 289 292 295 297 300 302 305 308 nan nan nan nan nan nan nan nan nan nan nan 326 324 324 320 319 317 318 320
214 217 220 223 226 228 233 235 237 239 240 239 238 238 239 242 245 248 254 260 260 256 254 255 257 258 259 257 253 252 252 252 252 251 252 254 254 257 262 262 265 268 268 267 266 269 271 274 275 278 280 280 281 283 284 284 286 288 291 293 296 299 303 nan nan nan nan nan nan nan nan nan nan nan nan nan nan nan nan nan 324 324 320 317 320
220 220 223 225 228 231 233 236 239 237 236 235 236 235 236 238 241 243 247 252 256 257 256 254 255 257 256 256 255 252 251 253 253 256 256 256 256 257 260 262 265 268 269 270 272 275 277 279 281 281 282 281 280 281 282 284 288 290 290 294 nan nan nan nan nan nan nan nan nan nan nan nan nan nan nan nan nan nan nan nan nan nan 323 318 320
226 227 228 231 232 232 235 237 239 240 239 239 237 234 232 234 236 239 238 238 246 253 257 254 254 254 256 257 258 253 252 255 254 250 254 259 265 265 265 266 267 268 272 278 276 278 281 281 278 278 278 280 281 282 283 284 286 nan nan nan nan nan nan nan nan nan nan nan nan nan nan nan nan nan nan nan nan nan nan nan nan 326 325 321 325
227 229 231 235 236 239 240 241 243 246 248 249 247 241 239 240 236 238 239 231 231 233 245 253 254 254 253 251 252 260 260 256 254 256 256 257 258 262 264 266 268 271 274 277 278 278 277 280 281 282 282 281 282 283 284 nan nan nan nan nan nan nan nan nan nan nan nan nan nan nan nan nan nan nan nan nan nan nan nan nan nan nan 328 327 328
228 231 235 238 241 244 246 247 248 249 251 251 251 251 246 237 235 237 240 240 239 236 239 249 256 257 259 251 242 252 257 258 259 260 261 262 263 264 265 266 268 270 272 274 271 276 280 280 281 281 282 283 nan nan nan nan nan nan nan nan nan nan nan nan nan nan nan nan nan nan nan nan nan nan nan nan nan nan nan nan nan nan nan 330 330
229 231 237 240 244 246 250 252 253 254 251 251 252 254 251 248 240 236 237 241 241 243 241 239 245 252 253 256 258 250 256 265 267 264 263 263 263 264 264 265 266 267 269 273 276 278 280 282 281 280 nan nan nan nan nan nan nan nan nan nan nan nan nan nan nan nan nan nan nan nan nan nan nan nan nan nan nan nan nan nan nan nan nan nan 331
234 232 236 242 244 248 250 253 254 256 257 256 254 254 255 255 253 247 239 241 244 243 242 246 249 252 256 254 253 259 264 265 267 268 267 265 263 263 264 262 261 262 268 271 278 279 280 281 nan nan nan nan nan nan nan nan nan nan nan nan nan nan nan nan nan nan nan nan nan nan nan nan nan nan nan nan nan nan nan nan nan nan nan nan nan
238 237 235 238 246 248 248 251 253 253 253 255 257 255 254 256 259 259 256 252 246 243 243 243 248 254 254 260 266 268 267 266 264 263 264 266 267 265 264 264 264 264 271 276 277 279 nan nan nan nan nan nan nan nan nan nan nan nan nan nan nan nan nan nan nan nan nan nan nan nan nan nan nan nan nan nan nan nan nan nan nan nan nan nan nan
236 237 239 239 237 243 249 250 251 252 252 253 253 255 255 256 257 258 260 259 256 255 252 248 245 247 253 256 261 265 268 269 268 268 268 268 268 271 270 267 267 268 269 272 276 nan nan nan nan nan nan nan nan nan nan nan nan nan nan nan nan nan nan nan nan nan nan nan nan nan nan nan nan nan nan nan nan nan nan nan nan nan nan nan nan
235 238 238 238 238 238 242 246 249 252 253 252 252 254 256 256 256 256 256 257 260 260 255 251 253 254 256 254 251 254 260 263 266 267 268 270 270 265 267 270 270 271 273 nan nan nan nan nan nan nan nan nan nan nan nan nan nan nan nan nan nan nan nan nan nan nan nan nan nan nan nan nan nan nan nan nan nan nan nan nan nan nan nan nan nan
238 240 243 243 242 242 241 243 245 249 251 253 256 257 257 258 259 259 258 259 258 258 258 259 258 256 256 257 257 256 258 262 264 266 267 268 264 264 269 270 272 nan nan nan nan nan nan nan nan nan nan nan nan nan nan nan nan nan nan nan nan nan nan nan nan nan nan nan nan nan nan nan nan nan nan nan nan nan nan nan nan nan nan nan nan
240 241 244 248 249 247 245 246 249 251 251 251 252 256 260 260 260 260 261 260 259 259 257 256 256 257 258 258 261 262 262 262 262 261 262 263 264 265 nan nan nan nan nan nan nan nan nan nan nan nan nan nan nan nan nan nan nan nan nan nan nan nan nan nan nan nan nan nan nan nan nan nan nan nan nan nan nan nan nan nan nan nan nan nan nan
245 243 245 248 249 250 248 249 251 253 253 253 253 254 256 258 258 258 258 258 257 257 257 256 255 254 253 257 263 266 265 261 261 262 263 264 nan nan nan nan nan nan nan nan nan nan nan nan nan nan nan nan nan nan nan nan nan nan nan nan nan nan nan nan nan nan nan nan nan nan nan nan nan nan nan nan nan nan nan nan nan nan nan nan nan
246 245 245 248 248 248 249 246 247 250 254 255 253 252 253 255 257 258 258 258 258 257 257 257 256 253 253 254 257 261 262 262 263 265 nan nan nan nan nan nan nan nan nan nan nan nan nan nan nan nan nan nan nan nan nan nan nan nan nan nan nan nan nan nan nan nan nan nan nan nan nan nan nan nan nan nan nan nan nan nan nan nan nan nan nan
246 247 246 245 249 251 250 248 245 245 248 253 254 253 252 252 254 256 256 255 256 256 256 256 255 254 253 253 253 258 262 263 265 nan nan nan nan nan nan nan nan nan nan nan nan nan nan nan nan nan nan nan nan nan nan nan nan nan nan nan nan nan nan nan nan nan nan nan nan nan nan nan nan nan nan nan nan nan nan nan nan nan nan nan nan
248 249 249 248 248 251 252 251 251 248 246 248 253 254 253 253 253 253 254 255 255 255 255 254 254 254 251 248 nan nan nan nan nan nan nan nan nan nan nan nan nan nan nan nan nan nan nan nan nan nan nan nan nan nan nan nan nan nan nan nan nan nan nan nan nan nan nan nan nan nan nan nan nan nan nan nan nan nan nan nan nan nan nan nan nan
249 249 249 250 250 250 251 252 253 254 252 250 251 253 253 253 253 255 256 255 255 255 255 255 254 254 nan nan nan nan nan nan nan nan nan nan nan nan nan nan nan nan nan nan nan nan nan nan nan nan nan nan nan nan nan nan nan nan nan nan nan nan nan nan nan nan nan nan nan nan nan nan nan nan nan nan nan nan nan nan nan nan nan nan nan
249 249 249 250 251 252 251 251 252 254 255 256 254 253 254 255 255 256 257 256 256 256 256 256 256 nan nan nan nan nan nan nan nan nan nan nan nan nan nan nan nan nan nan nan nan nan nan nan nan nan nan nan nan nan nan nan nan nan nan nan nan nan nan nan nan nan nan nan nan nan nan nan nan nan nan nan nan nan nan nan nan nan nan nan nan
247 250 252 251 249 252 252 252 253 255 256 256 254 254 254 255 255 256 257 257 258 258 nan nan nan nan nan nan nan nan nan nan nan nan nan nan nan nan nan nan nan nan nan nan nan nan nan nan nan nan nan nan nan nan nan nan nan nan nan nan nan nan nan nan nan nan nan nan nan nan nan nan nan nan nan nan nan nan nan nan nan nan nan nan nan
248 251 251 253 253 253 254 255 255 256 256 257 258 257 256 255 256 256 257 257 nan nan nan nan nan nan nan nan nan nan nan nan nan nan nan nan nan nan nan nan nan nan nan nan nan nan nan nan nan nan nan nan nan nan nan nan nan nan nan nan nan nan nan nan nan nan nan nan nan nan nan nan nan nan nan nan nan nan nan nan nan nan nan nan nan
253 253 254 255 256 257 257 257 256 255 256 257 257 257 257 257 258 258 nan 257 257 nan 257 258 nan nan nan nan nan nan nan nan nan nan nan nan nan nan nan nan nan nan nan nan nan nan nan nan nan nan nan nan nan nan nan nan nan nan nan nan nan nan nan nan nan nan nan nan nan nan nan nan nan nan nan nan nan nan nan nan nan nan nan nan nan
253 255 255 255 255 255 256 257 257 257 256 256 255 255 256 256 256 257 257 257 257 258 259 nan nan nan nan nan nan nan nan nan nan nan nan nan nan nan nan nan nan nan nan nan nan nan nan nan nan nan nan nan nan nan nan nan nan nan nan nan nan nan nan nan nan nan nan nan nan nan nan nan nan nan nan nan nan nan nan nan nan nan nan nan nan
253 254 255 256 256 255 255 255 255 255 256 255 254 253 253 253 254 255 257 258 259 nan nan nan nan nan nan nan nan nan nan nan nan nan nan nan nan nan nan nan nan nan nan nan nan nan nan nan nan nan nan nan nan nan nan nan nan nan nan nan nan nan nan nan nan nan nan nan nan nan nan nan nan nan nan nan nan nan nan nan nan nan nan nan nan
258 256 253 254 256 255 254 255 254 252 250 nan 251 nan nan nan nan nan nan nan nan nan nan nan nan nan nan nan nan nan nan nan nan nan nan nan nan nan nan nan nan nan nan nan nan nan nan nan nan nan nan nan nan nan nan nan nan nan nan nan nan nan nan nan nan nan nan nan nan nan nan nan nan nan nan nan nan nan nan nan nan nan nan nan nan
nan nan nan 253 253 254 nan nan nan nan nan nan nan nan nan nan nan nan nan nan nan nan nan nan nan nan nan nan nan nan nan nan nan nan nan nan nan nan nan nan nan nan nan nan nan nan nan nan nan nan nan nan nan nan nan nan nan nan nan nan nan nan nan nan nan nan nan nan nan nan nan nan nan nan nan nan nan nan nan nan nan nan nan nan nan